Satellite-Ground Cal/Val Site Overpasses Predictions

Prediction of Satellite NPP Overpassing Cal/Val Site: Antarctic Dome C

Ground Cal/Val Site Location: Latitude: -75.10, Longitude: 123.35; Satellite-Ground Site NADIR distance within 100 km.

Table of predicted overpasses for the next 14.0 days since TLE Epoch: 5/18/2024
Interval Starting Time Ending Time Minimum Distance Time Minimum Distance (km)
1 05/18/2024 15:08:12 05/18/2024 15:08:17 05/18/2024 15:08:14 98.35
2 05/19/2024 14:49:08 05/19/2024 14:49:37 05/19/2024 14:49:23 13.37
3 05/21/2024 07:31:56 05/21/2024 07:32:26 05/21/2024 07:32:11 3.45
4 05/24/2024 14:55:18 05/24/2024 14:55:47 05/24/2024 14:55:33 22.94
5 05/25/2024 14:36:35 05/25/2024 14:36:50 05/25/2024 14:36:42 84.52
6 05/26/2024 07:38:06 05/26/2024 07:38:33 05/26/2024 07:38:19 38.68
7 05/27/2024 07:19:18 05/27/2024 07:19:39 05/27/2024 07:19:28 71.42
8 05/29/2024 15:01:30 05/29/2024 15:01:53 05/29/2024 15:01:41 59.18
9 05/30/2024 14:42:37 05/30/2024 14:43:02 05/30/2024 14:42:50 50.31
